Search your local weather  

 
Advertise Here

Hazardous Weather Conditions

Air Quality Alert issued June 17 at 10:14AM MDT

Current Conditions: PHOENIX, ARIZONA

Fair


112.0 F

Last Updated on Jun 18 2021, 3:53 pm MST
Humidity: 10%
Wind Speed: 5.8 mph
Barometer 29.61 in
Dewpoint: 43.0 F
Visibility: 10.00 mi
Precip: --
Heat Index: 107 F
Wind Chill: NA
Current conditions at:

Phoenix, Phoenix-Deer Valley Municipal Airport, AZ (KDVT)

Lat: 33.69026 Lon: -112.06618

Local Radar Image active severe weather and emergency alerts image image weather storm and storm spotter reports image weather observation monitoring service image
Local
Radar
Active
Alerts
Storm Reports Weather
Monitoring

5 Day Forecast for PHOENIX, ARIZONA (85001)

Friday

Hot

High 116 °F
Friday
Night
Mostly Clear

Low 90 °F
Saturday

Mostly Sunny

High 116 °F
Saturday
Night
Mostly Clear

Low 88 °F
Sunday

Hot

High 115 °F
Sunday
Night
Clear

Low 85 °F
Monday

Mostly Sunny

High 108 °F
Monday
Night
Mostly Clear

Low 83 °F
Tuesday

Mostly Sunny

High 107 °F

Sign-up For Email & Text Message Weather Alert Notification Services


Advertise Here

Observation History for PHOENIX, ARIZONA


Time Wind
(mph)
Vis
(mi)
Weather Precip (in) Temperature (F) Relative
Humidity
Wind
Chill
(F)
Heat
Index
(F)
Pressure
Air Dwpt altimeter
(in)
sea level
(mb)
3:53 pm MST 5.8 10.00 Fair -- 112.0 43.0 10% NA 107 29.61 999.3
1:53 pm MST S 5.8 10.00 Fair -- 111.0 37.9 8% NA 105 29.66 1001.1
12:53 pm MST 10.00 Fair -- 109.0 39.0 9% NA 103 29.69 1002.0
11:53 am MST E 5.8 G 17.3 10.00 Fair -- 109.0 39.0 9% NA 103 29.71 1002.7
10:53 am MST SE 12.7 G 20.7 10.00 Fair -- 107.0 37.0 9% NA 101 29.73 1003.5
9:53 am MST SE 11.5 10.00 Fair -- 104.0 36.0 9% NA 98 29.74 1003.8
8:53 am MST SE 11.5 10.00 Fair -- 102.0 39.9 12% NA 97 29.75 1004.2
7:53 am MST E 12.7 10.00 Fair -- 99.0 41.0 14% NA 94 29.75 1004.2
6:53 am MST E 6.9 10.00 Fair -- 93.0 42.1 17% NA 89 29.74 1003.8
5:53 am MST E 8.1 10.00 Fair -- 90.0 43.0 19% NA 86 29.73 1003.5
4:53 am MST SE 8.1 10.00 Fair -- 93.0 41.0 16% NA 89 29.71 1002.8
2:53 am MST E 5.8 10.00 Fair -- 97.0 43.0 16% NA 93 29.68 1001.6
1:53 am MST E 3.5 10.00 Fair -- 96.0 43.0 16% NA 92 29.68 1001.6
12:53 am MST S 5.8 10.00 Fair -- 95.0 42.1 16% NA 91 29.69 1002.0
11:53 pm MST N 0.0 10.00 Fair -- 99.0 42.1 14% NA 95 29.67 1001.5
10:53 pm MST NE 8.1 10.00 Fair -- 100.0 42.1 14% NA 95 29.66 1001.2
9:53 pm MST NE 4.6 10.00 Fair -- 102.0 42.1 13% NA 97 29.67 1001.3
8:53 pm MST N 6.9 10.00 Fair -- 103.0 43.0 13% NA 98 29.65 1000.8
6:53 pm MST W 8.1 10.00 Fair -- 111.0 44.1 11% NA 106 29.64 1000.3
5:53 pm MST W 5.8 G 17.3 10.00 Fair -- 112.0 45.0 11% NA 107 29.63 1000.2
4:53 pm MST SW 12.7 G 16.1 10.00 Fair -- 113.0 44.1 10% NA 108 29.64 1000.6

Regional Weather Observation

Glendale, Glendale Municipal Airport, AZ (KGEU)

Clear
115.0 F

Luke Air Force Base / Phoenix, AZ (KLUF)

Fair
114.0 F

Phoenix, Phoenix Sky Harbor International Airport, AZ (KPHX)

A Few Clouds
116.0 F

Goodyear Municipal, AZ (KGYR)

Clear
115.0 F

Buckeye Municipal Airport, AZ (KBXK)

NULL
115.0 F

Scottsdale Airport, AZ (KSDL)

Fair
114.0 F
Advertise Here

Advertise Here